Date,TemperatureHighF,TemperatureAvgF,TemperatureLowF,DewpointHighF,DewpointAvgF,DewpointLowF,HumidityHigh,HumidityAvg,HumidityLow,PressureMaxIn,PressureMinIn,WindSpeedMaxMPH,WindSpeedAvgMPH,GustSpeedMaxMPH,PrecipitationSumIn
2013-2-1,10,4,-2,7,1,-5,88,84,79,30.10,29.34,16,3,16,0.00
2013-2-2,12,5,-5,8,1,-9,90,82,66,30.19,30.08,12,2,12,0.00
2013-2-3,20,9,-2,8,2,-5,91,76,46,30.08,29.75,12,1,12,0.00
2013-2-4,14,6,-3,9,1,-10,90,80,53,29.89,29.66,21,3,21,0.00
2013-2-5,11,1,-10,-2,-8,-14,92,66,42,30.06,29.89,12,2,12,0.00
2013-2-6,22,10,-3,18,2,-11,91,73,46,30.31,29.94,21,4,21,0.00
2013-2-7,6,-3,-12,-9,-13,-16,92,62,37,30.61,30.31,10,2,10,0.00
2013-2-8,12,8,2,8,2,-12,97,79,49,30.57,30.06,25,11,25,0.00
2013-2-9,9,4,-1,6,0,-5,95,84,81,30.33,29.98,20,5,20,0.00
2013-2-10,21,6,-7,7,-1,-11,87,71,48,30.51,30.33,7,1,7,0.01
2013-2-11,30,22,8,29,14,-1,97,74,44,30.38,29.57,15,4,15,0.00
2013-2-12,31,28,25,30,26,23,97,94,91,29.75,29.52,18,4,18,0.00
2013-2-13,28,24,21,23,22,19,94,91,80,29.80,29.73,14,2,14,0.00
2013-2-14,27,23,20,22,19,18,95,86,71,29.98,29.74,9,1,9,0.00
2013-2-15,36,28,21,29,23,17,91,81,65,29.95,29.85,17,3,17,0.00
2013-2-16,26,19,9,19,13,4,92,75,60,29.95,29.87,12,2,12,0.00
2013-2-17,9,6,3,5,2,-1,88,82,74,29.87,29.52,26,5,26,0.00
2013-2-18,12,4,-3,4,-2,-6,86,76,63,30.19,29.68,23,6,23,0.00
2013-2-19,36,19,0,23,4,-6,88,57,28,30.22,29.75,23,6,23,0.00
2013-2-20,21,18,14,19,16,12,92,90,88,29.63,29.48,23,6,23,0.00
2013-2-21,19,9,3,17,6,0,96,88,83,30.34,29.64,14,2,14,0.00
2013-2-22,30,21,14,22,17,12,93,86,69,30.48,30.31,12,2,12,0.01
2013-2-23,26,24,20,25,21,17,95,90,84,30.32,29.95,17,8,17,0.00
2013-2-24,29,26,24,27,25,22,96,93,90,29.96,29.78,14,3,14,0.00
2013-2-25,32,26,20,27,23,18,95,89,81,30.25,29.90,7,1,7,0.00
2013-2-26,33,29,24,25,24,22,94,81,65,30.34,30.20,14,3,14,0.06
2013-2-27,30,27,25,26,23,20,94,86,79,30.20,29.68,33,15,33,0.00
2013-2-28,34,29,25,32,27,23,96,93,88,29.69,29.55,16,4,16,0.15